Tracking 29487 objects as of 11-Sep-2024
HD Live streaming from Space Station
objects crossing your sky now

FENGYUN 1C DEB

Track FENGYUN 1C DEB now!
10-day predictions


NORAD ID: 37069
Int'l Code: 1999-025EFD
Perigee: 810.0 km
Apogee: 1,465.6 km
Inclination: 95.8 °
Period: 107.9 minutes
Semi major axis: 7508 km
RCS: 0.0144 m2 (small)
Launch date: May 10, 1999
Source: People's Republic of China (PRC)
Launch site: Taiyaun Space Center, China (TSC)

Note: This is SATELLITE DEBRIS
Your satellite tracking list
Your tracking list is empty




NASA's NSSDC Master Catalog

Two Line Element Set (TLE):
1 37069U 99025EFD 24254.69023502  .00005802  00000-0  68014-2 0  9990
2 37069  95.8458  53.0118 0436539  47.2320 316.4685 13.34278322815903
Source of the keplerian elements: AFSPC